Location: Newark
(33.6333°S, 78.8500°W)
Time: 02:09:14
(UTC+00:00)

Courier 1B - Pass Details

Date: 22 September 2019
Orbit: 962 x 1209 km, 28.3° (Epoch: 22 October)

Event Time Altitude Azimuth Distance (km) Brightness Sun altitude
Rises 00:19:15 0° 281° (W) 4,013 12.1 -15.0°
Reaches altitude 10° 00:22:10 10° 284° (WNW) 3,019 11.1 -15.6°
Maximum altitude 00:29:25 57° 1° (N) 1,256 8.0 -17.0°
Enters shadow 00:33:18 27° 68° (ENE) 1,916 8.4 -17.8°
Drops below altitude 10° 00:36:13 10° 77° (ENE) 2,837 - -18.4°
Sets 00:38:53 0° 81° (E) 3,756 - -19.0°
